Location: Marsån
(66.4167°N, 22.2833°E)
Time: 11:36:28
(UTC+00:00)

Resurs 1-4 Rocket - Pass Details

Date: 24 February 2024
Orbit: 799 x 812 km, 98.7° (Epoch: 15 April)

Event Time Altitude Azimuth Distance (km) Brightness Sun altitude
Rises 22:32:20 0° 18° (NNE) 3,338 6.2 -32.9°
Reaches altitude 10° 22:35:50 10° 42° (NE) 2,405 5.0 -32.9°
Enters shadow 22:38:30 15° 73° (ENE) 2,096 4.4 -33.0°
